• In Österreich
  • Länderverzeichnis
  • Für 7 Tage
  • Wassertemperatur
  • Satellitenkarten
  • Wetterkarte
  • News
  • Widgets
  • user-avatar
    Anmelden

    Stündliche Wetter Andrychów

    Heute, 14 August, Dienstag

    Zeit Temperatur Niederschläge Wind Luftdruck Luftfeuchtigkeit
    00:00 +20°C° 0 mm 2 m/S 726 mmHg 74%
    01:00 +20°C° 0 mm 2 m/S 726 mmHg 74%
    02:00 +20°C° 0 mm 2 m/S 726 mmHg 74%
    03:00 +20°C° 0 mm 2 m/S 726 mmHg 75%
    04:00 +20°C° 0 mm 2 m/S 726 mmHg 75%
    05:00 +21°C° 0,1 mm 2 m/S 726 mmHg 73%
    06:00 +23°C° 0,1 mm 2 m/S 727 mmHg 71%
    07:00 +25°C° 0 mm 1 m/S 727 mmHg 68%
    08:00 +25°C° 0,6 mm 2 m/S 727 mmHg 65%
    09:00 +26°C° 0,6 mm 2 m/S 727 mmHg 63%
    10:00 +27°C° 0,6 mm 2 m/S 728 mmHg 61%
    11:00 +28°C° 0,7 mm 2 m/S 728 mmHg 60%
    12:00 +28°C° 0,7 mm 2 m/S 728 mmHg 59%
    13:00 +28°C° 0,7 mm 2 m/S 728 mmHg 58%
    14:00 +28°C° 1 mm 3 m/S 728 mmHg 60%
    15:00 +27°C° 1 mm 3 m/S 727 mmHg 62%
    16:00 +27°C° 1 mm 3 m/S 727 mmHg 64%
    17:00 +25°C° 0,4 mm 2 m/S 727 mmHg 69%
    18:00 +24°C° 0,4 mm 2 m/S 727 mmHg 73%
    19:00 +22°C° 0,4 mm 1 m/S 727 mmHg 77%
    20:00 +22°C° 0,1 mm 1 m/S 728 mmHg 79%
    21:00 +21°C° 0,1 mm 1 m/S 728 mmHg 81%
    22:00 +20°C° 0,1 mm 1 m/S 728 mmHg 83%
    23:00 +20°C° 0 mm 1 m/S 728 mmHg 84%

    Morgen, 15 August, Mittwoch

    Zeit Temperatur Niederschläge Wind Luftdruck Luftfeuchtigkeit
    00:00 +19°C° 0 mm 1 m/S 729 mmHg 85%
    01:00 +19°C° 0 mm 1 m/S 729 mmHg 86%
    02:00 +19°C° 0 mm 1 m/S 729 mmHg 86%
    03:00 +19°C° 0 mm 1 m/S 729 mmHg 86%
    04:00 +18°C° 0 mm 1 m/S 729 mmHg 86%
    05:00 +18°C° 0 mm 2 m/S 730 mmHg 84%
    06:00 +19°C° 0 mm 2 m/S 730 mmHg 81%
    07:00 +20°C° 0 mm 2 m/S 730 mmHg 79%
    08:00 +21°C° 0,1 mm 3 m/S 731 mmHg 74%
    09:00 +22°C° 0,1 mm 3 m/S 731 mmHg 69%
    10:00 +24°C° 0,1 mm 3 m/S 731 mmHg 64%
    11:00 +24°C° 0,2 mm 3 m/S 731 mmHg 62%
    12:00 +25°C° 0,2 mm 3 m/S 731 mmHg 60%
    13:00 +26°C° 0,2 mm 3 m/S 731 mmHg 58%
    14:00 +26°C° 0,4 mm 4 m/S 731 mmHg 60%
    15:00 +25°C° 0,4 mm 4 m/S 731 mmHg 62%
    16:00 +25°C° 0,4 mm 4 m/S 731 mmHg 64%
    17:00 +22°C° 0,2 mm 3 m/S 731 mmHg 69%
    18:00 +21°C° 0,2 mm 2 m/S 731 mmHg 75%
    19:00 +20°C° 0,2 mm 2 m/S 731 mmHg 80%
    20:00 +19°C° 0 mm 2 m/S 732 mmHg 82%
    21:00 +19°C° 0 mm 1 m/S 732 mmHg 84%
    22:00 +19°C° 0 mm 1 m/S 732 mmHg 86%
    23:00 +18°C° 0 mm 1 m/S 732 mmHg 86%

    übermorgen, 16 August, Donnerstag

    Zeit Temperatur Niederschläge Wind Luftdruck Luftfeuchtigkeit
    00:00 +18°C° 0 mm 1 m/S 732 mmHg 87%
    01:00 +18°C° 0 mm 1 m/S 732 mmHg 88%
    02:00 +16°C° 0 mm 1 m/S 732 mmHg 88%
    03:00 +16°C° 0 mm 1 m/S 732 mmHg 89%
    04:00 +16°C° 0 mm 1 m/S 733 mmHg 90%
    05:00 +18°C° 0 mm 1 m/S 733 mmHg 87%
    06:00 +19°C° 0 mm 1 m/S 733 mmHg 83%
    07:00 +20°C° 0 mm 1 m/S 733 mmHg 80%
    08:00 +21°C° 0 mm 1 m/S 733 mmHg 73%
    09:00 +23°C° 0 mm 1 m/S 733 mmHg 66%
    10:00 +24°C° 0 mm 2 m/S 733 mmHg 59%
    11:00 +25°C° 0 mm 2 m/S 733 mmHg 56%
    12:00 +26°C° 0 mm 2 m/S 733 mmHg 53%
    13:00 +26°C° 0 mm 2 m/S 732 mmHg 50%
    14:00 +26°C° 0 mm 2 m/S 732 mmHg 51%
    15:00 +26°C° 0 mm 2 m/S 732 mmHg 52%
    16:00 +26°C° 0 mm 2 m/S 732 mmHg 52%
    17:00 +24°C° 0 mm 2 m/S 732 mmHg 59%
    18:00 +23°C° 0 mm 2 m/S 732 mmHg 65%
    19:00 +20°C° 0 mm 2 m/S 732 mmHg 72%
    20:00 +20°C° 0 mm 1 m/S 732 mmHg 75%
    21:00 +20°C° 0 mm 1 m/S 732 mmHg 78%
    22:00 +19°C° 0 mm 1 m/S 732 mmHg 81%
    23:00 +18°C° 0 mm 1 m/S 732 mmHg 83%

    17 August, Freitag

    Zeit Temperatur Niederschläge Wind Luftdruck Luftfeuchtigkeit
    00:00 +18°C° 0 mm 1 m/S 732 mmHg 84%
    01:00 +18°C° 0 mm 1 m/S 732 mmHg 86%
    02:00 +16°C° 0 mm 1 m/S 731 mmHg 87%
    03:00 +16°C° 0 mm 1 m/S 731 mmHg 88%
    04:00 +16°C° 0 mm 1 m/S 731 mmHg 89%
    05:00 +18°C° 0 mm 1 m/S 731 mmHg 85%
    06:00 +20°C° 0 mm 1 m/S 732 mmHg 80%
    07:00 +21°C° 0 mm 1 m/S 732 mmHg 75%
    08:00 +23°C° 0 mm 2 m/S 732 mmHg 68%
    09:00 +25°C° 0 mm 2 m/S 732 mmHg 60%
    10:00 +27°C° 0 mm 2 m/S 732 mmHg 53%
    11:00 +28°C° 0 mm 2 m/S 732 mmHg 50%
    12:00 +28°C° 0 mm 2 m/S 731 mmHg 48%
    13:00 +29°C° 0 mm 1 m/S 731 mmHg 46%
    14:00 +29°C° 0,1 mm 1 m/S 731 mmHg 47%
    15:00 +29°C° 0,1 mm 1 m/S 731 mmHg 47%
    16:00 +28°C° 0,1 mm 1 m/S 731 mmHg 48%
    17:00 +27°C° 0,1 mm 1 m/S 731 mmHg 55%
    18:00 +25°C° 0,1 mm 1 m/S 731 mmHg 62%
    19:00 +23°C° 0,1 mm 1 m/S 731 mmHg 69%
    20:00 +22°C° 0 mm 1 m/S 731 mmHg 73%
    21:00 +21°C° 0 mm 1 m/S 731 mmHg 77%
    22:00 +20°C° 0 mm 1 m/S 731 mmHg 81%
    23:00 +20°C° 0 mm 1 m/S 731 mmHg 82%

    18 August, Samstag

    Zeit Temperatur Niederschläge Wind Luftdruck Luftfeuchtigkeit
    00:00 +20°C° 0 mm 1 m/S 731 mmHg 83%
    01:00 +19°C° 0 mm 1 m/S 731 mmHg 84%
    02:00 +19°C° 0 mm 1 m/S 731 mmHg 84%
    03:00 +19°C° 0 mm 1 m/S 731 mmHg 84%
    04:00 +19°C° 0 mm 1 m/S 731 mmHg 85%
    05:00 +20°C° 0 mm 1 m/S 732 mmHg 80%
    06:00 +21°C° 0 mm 1 m/S 732 mmHg 75%
    07:00 +21°C° 0 mm 0 m/S 732 mmHg 70%
    08:00 +25°C° 0 mm 1 m/S 733 mmHg 63%
    09:00 +26°C° 0 mm 1 m/S 733 mmHg 56%
    10:00 +28°C° 0 mm 2 m/S 733 mmHg 49%
    11:00 +28°C° 0 mm 2 m/S 733 mmHg 47%
    12:00 +29°C° 0 mm 2 m/S 733 mmHg 45%
    13:00 +30°C° 0 mm 2 m/S 733 mmHg 43%
    14:00 +29°C° 0 mm 2 m/S 733 mmHg 44%
    15:00 +29°C° 0 mm 2 m/S 733 mmHg 45%
    16:00 +29°C° 0 mm 2 m/S 733 mmHg 46%
    17:00 +27°C° 0,3 mm 2 m/S 733 mmHg 55%
    18:00 +25°C° 0,3 mm 2 m/S 733 mmHg 64%
    19:00 +23°C° 0,3 mm 2 m/S 733 mmHg 74%
    20:00 +22°C° 0,2 mm 1 m/S 733 mmHg 78%
    21:00 +21°C° 0,2 mm 1 m/S 733 mmHg 82%
    22:00 +20°C° 0,2 mm 1 m/S 734 mmHg 86%
    23:00 +20°C° 0 mm 1 m/S 734 mmHg 87%

    19 August, Sonntag

    Zeit Temperatur Niederschläge Wind Luftdruck Luftfeuchtigkeit
    00:00 +20°C° 0 mm 1 m/S 734 mmHg 88%
    01:00 +19°C° 0 mm 1 m/S 734 mmHg 89%
    02:00 +19°C° 0 mm 1 m/S 734 mmHg 89%
    03:00 +19°C° 0 mm 1 m/S 734 mmHg 90%
    04:00 +16°C° 0 mm 0 m/S 734 mmHg 90%
    05:00 +19°C° 0 mm 1 m/S 734 mmHg 86%
    06:00 +20°C° 0 mm 1 m/S 735 mmHg 82%
    07:00 +22°C° 0 mm 1 m/S 735 mmHg 78%
    08:00 +23°C° 0 mm 1 m/S 735 mmHg 68%
    09:00 +24°C° 0 mm 1 m/S 735 mmHg 58%
    10:00 +26°C° 0 mm 2 m/S 735 mmHg 49%
    11:00 +27°C° 0 mm 2 m/S 735 mmHg 45%
    12:00 +27°C° 0 mm 2 m/S 735 mmHg 42%
    13:00 +28°C° 0 mm 2 m/S 734 mmHg 39%
    14:00 +28°C° 0 mm 2 m/S 734 mmHg 39%
    15:00 +28°C° 0 mm 2 m/S 734 mmHg 39%
    16:00 +28°C° 0 mm 2 m/S 734 mmHg 40%
    17:00 +26°C° 0 mm 1 m/S 734 mmHg 46%
    18:00 +24°C° 0 mm 1 m/S 733 mmHg 52%
    19:00 +22°C° 0 mm 1 m/S 733 mmHg 58%
    20:00 +21°C° 0 mm 1 m/S 734 mmHg 60%
    21:00 +18°C° 0 mm 0 m/S 734 mmHg 62%
    22:00 +18°C° 0 mm 0 m/S 734 mmHg 63%
    23:00 +17°C° 0 mm 0 m/S 734 mmHg 65%
    Mehr zeigen